Location: Hollin Hills
(38.7573°N, 77.0661°W)
Time: 12:34:49
(UTC+00:00)

ISS - Pass Details

Date: 26 April 2026
Orbit: 414 x 424 km, 51.6° (Epoch: 11 May)

Event Time Altitude Azimuth Distance (km) Brightness Sun altitude
Exits shadow 08:11:29 17° 331° (NNW) 1,151 -1.4 -22.1°
Maximum altitude 08:11:48 17° 338° (NNW) 1,144 -1.4 -22.1°
Drops below altitude 10° 08:14:06 10° 22° (NNE) 1,502 -0.1 -21.7°
Sets 08:16:44 0° 43° (NE) 2,371 1.6 -21.3°
